Terug naar catalogus

GRUS-1B

ActiefWetenschapSSO
NORAD 47934·PAYLOAD·🇯🇵 Japan

Gelanceerd Mar 22, 2021 vanaf Baikonur Cosmodrome

Loading…

Volgende Passages (komende 24 uur)

TLE

VersSource: Space-Track

Epoch: Sep 14, 2026, 15:16 UTC

1 47934U 21022C   26257.63661716  .00000692  00000-0  61857-4 0  9990
2 47934  97.5250 137.8048 0016932  23.8084 336.3919 14.98899650299298

Volg GRUS-1B in realtime met AllMySat

Download on the App Store